This is the latest recevied weather packets stored in our database for station/object KE9ADS. If no packets are shown the sender has not sent any weather packets the latest 10 day(s).
| Time | Temp. | Humidity | Pressure | Rain* | Wind** | Luminosity | Snow |
|---|---|---|---|---|---|---|---|
| 1777655778 | 11.11° C | 46% | 1020.5 hPa | 0 mm | - | 94 W/m² | - |
| 1777655178 | 11.11° C | 44% | 1020.5 hPa | 0 mm | - | 264 W/m² | - |
| 1777654578 | 11.11° C | 43% | 1020.6 hPa | 0 mm | - | 284 W/m² | - |
| 1777653974 | 11.11° C | 42% | 1020.6 hPa | 0 mm | - | 177 W/m² | - |
| 1777653373 | 11.11° C | 42% | 1020.4 hPa | 0 mm | - | 230 W/m² | - |
| 1777652772 | 10.56° C | 44% | 1020.5 hPa | 0 mm | - | 216 W/m² | - |
| 1777652166 | 10.56° C | 42% | 1020.3 hPa | 0 mm | - | 262 W/m² | - |
| 1777651565 | 11.67° C | 44% | 1020.5 hPa | 0 mm | - | 249 W/m² | - |
| 1777650965 | 11.67° C | 42% | 1020.3 hPa | 0 mm | - | 344 W/m² | - |
| 1777650359 | 11.67° C | 44% | 1020.4 hPa | 0 mm | - | 419 W/m² | - |
| 1777649759 | 11.11° C | 44% | 1020.2 hPa | 0 mm | - | 668 W/m² | - |
| 1777649158 | 11.67° C | 45% | 1020.4 hPa | 0 mm | - | 268 W/m² | - |
| 1777647955 | 11.67° C | 48% | 1020.6 hPa | 0 mm | - | 317 W/m² | - |
| 1777647354 | 11.11° C | 51% | 1020.5 hPa | 0 mm | - | 549 W/m² | - |
| 1777646755 | 10° C | 53% | 1020.4 hPa | 0 mm | - | 533 W/m² | - |
| 1777646152 | 9.44° C | 58% | 1020.6 hPa | 0 mm | - | 216 W/m² | - |
| 1777645552 | 7.78° C | 61% | 1020.5 hPa | 0 mm | - | 503 W/m² | - |
| 1777644949 | 7.78° C | 62% | 1020.6 hPa | 0 mm | - | 181 W/m² | - |
| 1777644349 | 7.22° C | 65% | 1020.7 hPa | 0 mm | - | 245 W/m² | - |
| 1777643748 | 7.22° C | 65% | 1020.7 hPa | 0 mm | - | 94 W/m² | - |
| 1777643148 | 7.22° C | 65% | 1020.4 hPa | 0 mm | - | 95 W/m² | - |
| 1777642548 | 7.22° C | 65% | 1020.5 hPa | 0 mm | - | 134 W/m² | - |
| 1777641947 | 6.67° C | 68% | 1020.6 hPa | 0 mm | - | 141 W/m² | - |
| 1777641343 | 6.11° C | 70% | 1020.7 hPa | 0 mm | - | 92 W/m² | - |
| 1777640741 | 5.56° C | 71% | 1020.6 hPa | 0 mm | - | 80 W/m² | - |
* Rain latest hour (hover to see other rain measurements)
** Current wind speed in m/s (hover to see current wind gust speed)